GFSFLT2_850_dewp_009.txt.gz
Dewpoint
11 11 12 10 8 9 5 4 4 4 5 6 5 6 7 6 5 4 2 3 2 2 1 6 8 8 9 8 7 5 7 5
12 11 11 11 6 9 7 8 8 7 5 6 5 5 5 6 8 8 9 8 7 6 7 8 8 9 8 8 5 5 6 7
8 12 10 7 9 9 8 9 8 8 7 6 8 9 6 5 4 7 9 10 9 9 8 9 9 9 8 7 6 5 6 6
-1 -3 -2 1 11 8 9 10 10 7 5 6 6 6 1 0 -1 2 4 5 7 6 7 9 9 8 7 7 6 5 5 7
-1 -3 -4 4 10 9 9 10 9 9 7 5 7 6 3 -5 -8 -7 -0 4 -7 3 1 2 7 6 7 7 8 9 5 5
-1 -2 -5 2 6 7 8 8 7 4 4 2 -2 -8 -11 -11 -8 -8 -11 -12 -10 -6 -3 -2 -2 -1 3 6 6 7 7 6
-0 -2 -6 -2 3 6 9 8 6 6 5 -2 -1 -1 -3 -6 -6 -7 -6 -7 -8 -6 -6 -4 -3 -0 2 3 6 6 6 6
-0 -2 -5 -4 -3 -1 4 6 5 4 -0 -4 -2 -1 -1 -4 -0 -5 -6 -6 -8 -9 -8 -7 -5 -3 -1 4 5 5 5 6
-1 -1 -2 -1 -1 -1 0 -2 -3 -5 -7 -6 -9 -10 -6 -6 -4 -6 -7 -5 -11 -9 -12 -15 -11 -5 0 1 1 4 6 6
-2 -2 -2 -1 -2 -1 -3 -4 -4 -4 -6 -6 -6 -10 -10 -8 -6 -7 -6 -11 -11 -10 -10 -10 -12 -13 -13 -3 2 3 5 6
-2 -2 -2 -4 -5 -1 -0 -2 -2 -3 -2 -7 -4 -6 -11 -9 -3 -5 -4 -6 -5 -6 -6 -7 -8 -8 -7 -7 -8 -8 -9 -8
-2 -3 -3 -3 -4 -2 -2 -2 -3 -3 -1 -0 -4 -5 -6 -8 -4 -3 -4 -4 -3 -3 -4 -5 -4 -4 -5 -4 -4 -5 -6 -6
-3 -3 -3 -4 -3 -4 -4 -4 -4 -5 -3 -2 -2 -2 -3 -5 -5 -3 -4 -3 -3 -3 -4 -3 -4 -5 -4 -4 -5 -5 -4 -6
-3 -4 -3 -3 -4 -4 -4 -4 -5 -5 -4 -3 -3 -3 -3 -3 -5 -4 -3 -4 -4 -4 -4 -3 -3 -3 -4 -3 -3 -5 -5 -3
-3 -3 -2 -2 -3 -4 -4 -4 -5 -5 -4 -3 -3 -3 -3 -3 -3 -3 -3 -3 -3 -3 -3 -3 -4 -3 -2 -3 -3 -3 -3 -3
-3 -2 -2 -2 -2 -3 -4 -4 -4 -5 -5 -5 -5 -5 -5 -4 -3 -2 -2 -2 -3 -3 -3 -4 -2 -3 -6 -9 -7 -4 -1 -1
-3 -3 -3 -3 -3 -2 -2 -3 -4 -4 -5 -5 -5 -5 -5 -2 -1 -1 -2 -3 -2 -1 -2 -4 -4 -7 -10 -6 -4 -4 -4 -4
-2 -2 -2 -2 -2 -3 -3 -2 -2 -3 -4 -5 -5 -5 -4 -2 -3 -3 -3 -3 -4 -3 -4 -5 -11 -14 -14 -15 -14 -12 -10 -8
-1 -1 -1 -0 -0 -1 -1 -2 -2 -1 -2 -4 -5 -5 -4 -4 -5 -4 -5 -5 -5 -5 -4 -8 -8 -14 -19 -20 -18 -17 -13 -11
-0 -0 -0 -0 -1 0 -0 -0 -0 -1 -1 -3 -4 -4 -4 -4 -4 -4 -5 -7 -4 -2 -3 -11 -17 -16 -13 -14 -13 -14 -13 -10

GFSFLT2_850_dewp_012.txt.gz
Dewpoint
11 12 11 9 4 5 3 2 3 3 2 3 3 3 4 4 5 5 4 3 2 2 4 5 7 8 7 8 7 8 8 8
10 11 10 10 5 5 7 6 5 5 4 2 2 1 2 1 2 2 3 6 6 7 7 8 9 8 8 7 6 6 3 4
10 10 9 8 8 8 8 6 6 5 4 3 3 3 3 2 2 1 3 7 8 7 8 8 8 9 10 9 8 6 3 0
5 3 -1 3 4 8 8 8 7 7 5 3 2 3 1 -0 -1 -1 -0 5 5 6 6 5 6 8 8 8 8 8 7 6
1 -2 -4 -1 6 8 9 9 8 7 6 6 5 2 2 2 -2 -6 -3 2 3 -4 2 1 1 6 7 6 6 7 8 8
-1 -2 -4 3 6 9 9 9 9 7 8 7 7 6 4 -6 -7 -7 -6 -8 -10 -8 -4 -5 -4 -2 -1 2 4 6 7 8
-1 -3 -2 -2 5 6 8 8 7 5 3 4 2 -2 -2 -3 -8 -9 -9 -10 -8 -9 -8 -7 -8 -6 -4 -2 3 5 6 6
-3 -3 -2 -4 0 7 9 9 8 7 5 5 0 -2 -3 -4 -6 -6 -7 -8 -10 -8 -11 -12 -13 -13 -12 -7 -4 1 6 6
-3 -2 -2 -3 -4 -2 0 2 3 3 1 -1 -4 -5 -6 -4 -3 -3 -4 -5 -5 -10 -11 -12 -13 -14 -14 -14 -6 0 -0 2
-3 -2 -2 -3 -3 -4 -4 -3 -3 -3 -4 -5 -6 -5 -8 -7 -5 -1 -1 -3 -7 -11 -10 -10 -10 -10 -11 -12 -13 -13 -11 -8
-2 -2 -2 -3 -3 -3 -4 -4 -2 -3 -4 -4 -5 -5 -4 -7 -8 -5 -2 -4 -7 -8 -6 -6 -7 -8 -9 -8 -8 -9 -9 -9
-3 -3 -3 -3 -3 -3 -4 -4 -3 -2 -3 -3 -5 -5 -2 -4 -7 -8 -4 -4 -4 -5 -5 -5 -8 -7 -7 -8 -8 -8 -9 -9
-4 -3 -4 -4 -4 -3 -4 -4 -4 -4 -3 -4 -5 -4 -3 -4 -3 -4 -5 -4 -4 -4 -4 -4 -6 -6 -5 -5 -8 -8 -8 -9
-4 -3 -3 -3 -3 -4 -3 -3 -4 -4 -5 -5 -4 -3 -3 -3 -3 -3 -4 -4 -4 -4 -4 -4 -5 -4 -6 -5 -4 -7 -9 -8
-3 -3 -3 -3 -2 -2 -2 -2 -3 -4 -4 -4 -5 -4 -3 -3 -3 -3 -3 -4 -3 -4 -3 -3 -3 -4 -5 -2 -4 -5 -10 -7
-3 -3 -3 -3 -2 -2 -2 -2 -2 -2 -3 -4 -4 -5 -5 -3 -3 -3 -3 -3 -3 -2 -3 -3 -3 -3 -3 -3 -10 -9 -4 -4
-2 -2 -2 -2 -2 -2 -2 -2 -2 -2 -2 -2 -3 -4 -5 -5 -4 -2 -2 -2 -2 -3 -2 -2 -2 -5 -11 -12 -11 -11 -15 -14
-1 -1 -1 -1 -1 -0 -0 0 0 -0 -1 -1 -1 -3 -4 -5 -5 -2 -1 -1 -1 -1 -1 -2 -4 -3 -4 -4 -8 -13 -17 -13
-1 -1 -0 -0 -0 -0 -1 -1 -1 -1 -0 0 -0 -2 -4 -4 -3 -1 -1 -3 -2 -2 -3 -1 -1 -1 -1 -9 -16 -17 -16 -12
-0 -0 -0 -0 0 -0 -1 -2 -2 -2 -2 -3 -2 -0 -3 -3 -3 -4 -5 -5 -3 -2 -1 -1 -1 -3 -9 -14 -14 -13 -12 -10

GFSFLT2_850_dewp_015.txt.gz
Dewpoint
2 4 3 1 -1 -1 2 3 2 2 2 2 3 3 4 4 4 4 4 4 3 3 3 4 5 5 7 7 8 7 8 8
6 4 0 -3 -1 2 6 6 6 4 3 2 2 2 2 2 3 4 4 5 7 7 7 7 8 7 8 8 8 7 7 5
8 6 3 2 4 5 8 8 7 7 5 3 3 5 5 4 3 2 3 4 7 7 7 5 6 9 9 9 8 8 8 7
8 4 -0 -2 4 5 8 8 9 8 7 4 4 4 6 1 -1 -3 -4 0 4 4 4 4 3 2 6 8 8 8 7 7
4 1 -2 -4 0 8 8 9 7 7 4 5 3 3 1 -3 -6 -7 -9 -7 -3 -2 -7 -2 -2 -5 -2 1 3 3 4 5
2 0 -2 -4 -3 4 7 8 7 7 3 2 3 2 -1 -4 -7 -9 -8 -8 -9 -11 -11 -7 -5 -7 -6 -4 -3 2 4 6
0 -1 -3 -3 -6 -3 2 6 7 8 7 5 4 3 -0 -2 -2 -5 -8 -8 -8 -8 -8 -8 -6 -6 -4 -5 -5 -1 1 3
-1 -3 -4 -3 -3 -4 -0 6 8 8 8 8 6 5 1 -1 -1 -2 -3 -2 -4 -6 -7 -10 -12 -13 -14 -13 -10 -8 -4 -1
-1 -3 -3 -2 -2 -3 -2 1 3 4 4 4 2 -1 -4 -5 -4 -3 -2 -1 -2 -3 -5 -11 -11 -12 -12 -12 -12 -12 -12 -10
-3 -3 -2 -2 -3 -3 -3 -4 -4 -4 -2 -3 -3 -4 -4 -5 -6 -6 -5 -3 -4 -5 -8 -10 -9 -8 -8 -8 -9 -9 -8 -9
-3 -3 -2 -3 -4 -4 -4 -4 -5 -5 -4 -4 -4 -3 -4 -4 -4 -5 -7 -6 -6 -6 -7 -8 -6 -6 -8 -9 -9 -10 -10 -10
-3 -3 -3 -4 -4 -4 -4 -5 -4 -4 -5 -5 -4 -4 -4 -4 -3 -3 -4 -7 -7 -7 -6 -6 -6 -6 -8 -9 -7 -6 -7 -9
-3 -4 -3 -3 -3 -3 -4 -4 -4 -4 -4 -4 -4 -5 -5 -5 -4 -3 -3 -4 -4 -5 -5 -5 -5 -5 -7 -7 -6 -7 -7 -9
-4 -4 -3 -3 -3 -3 -3 -3 -3 -3 -3 -3 -4 -4 -4 -4 -5 -4 -3 -3 -3 -4 -4 -5 -4 -4 -5 -5 -5 -6 -6 -7
-3 -3 -3 -3 -3 -2 -2 -2 -2 -2 -2 -2 -2 -3 -4 -4 -4 -4 -3 -3 -3 -3 -4 -4 -4 -4 -4 -4 -3 -5 -6 -7
-3 -3 -3 -3 -2 -2 -2 -1 -1 -1 -1 -1 -1 -1 -3 -4 -4 -4 -3 -2 -2 -3 -3 -4 -3 -3 -3 -3 -4 -8 -12 -12
-2 -1 -2 -2 -2 -1 -0 -0 -0 -0 -0 -0 -0 -0 -0 -3 -4 -4 -3 -1 -2 -3 -3 -2 -2 -2 -3 -6 -9 -9 -7 -8
-2 -2 -1 -1 0 0 0 -0 -0 -0 -1 -2 -1 -1 -1 -0 -1 -4 -1 -1 -2 -2 -1 -2 -3 -3 -2 -2 -2 -3 -7 -13
-0 -0 -0 -0 -0 -0 -0 -0 -2 -1 -2 -2 -3 -3 -3 -3 -1 -3 -1 -1 -1 -2 -3 -2 -1 0 -0 -1 -1 -1 -3 -8
-0 -0 -0 -0 -1 -1 -1 -2 -3 -2 -2 -3 -4 -4 -3 -1 -1 -0 -1 -2 -3 -2 -1 -1 -0 -1 -0 -3 -7 -9 -11 -12

GFSFLT2_850_dewp_018.txt.gz
Dewpoint
1 2 -0 -1 -2 -0 1 4 4 4 4 4 4 4 4 4 4 4 3 3 4 4 4 4 5 6 7 8 8 9 8 8
3 3 2 -3 -2 -1 2 5 5 5 4 3 3 3 3 3 3 4 4 5 6 7 7 7 7 7 8 9 9 8 7 7
7 3 -1 -4 -5 -3 0 3 3 5 5 4 3 3 3 4 2 1 -2 -4 -1 4 3 4 1 1 5 8 9 8 8 7
8 2 -1 -4 -5 -4 -1 2 1 3 3 4 3 2 3 4 -1 -4 -7 -7 -4 -1 -2 -5 -6 -5 -5 0 6 8 8 8
8 2 -1 -4 -4 -4 -3 -0 2 2 4 2 3 3 2 1 -1 -2 -5 -5 -7 -5 -4 -7 -5 -5 -7 -7 -6 -5 -3 1
9 1 -1 -3 -4 -5 -6 -3 2 4 6 5 4 3 3 2 -4 -5 -5 -7 -8 -9 -10 -10 -9 -7 -6 -6 -5 -7 -7 -4
8 0 -4 -4 -3 -4 -5 -4 1 4 5 6 6 6 5 4 0 -1 -3 -5 -6 -6 -6 -8 -9 -10 -10 -11 -11 -11 -10 -10
5 -0 -4 -3 -2 -3 -3 -2 -0 0 2 4 5 5 4 3 -1 -3 -2 -2 -4 -4 -5 -6 -7 -11 -12 -12 -13 -13 -13 -12
2 -1 -3 -2 -2 -3 -3 -3 -4 -4 -3 -2 -1 -2 -3 -4 -4 -5 -5 -4 -3 -2 -3 -5 -8 -11 -11 -11 -11 -10 -9 -9
1 -2 -3 -2 -3 -3 -4 -4 -4 -4 -4 -4 -3 -3 -3 -4 -4 -5 -4 -5 -6 -5 -5 -5 -7 -9 -8 -8 -8 -8 -9 -9
-0 -3 -3 -3 -4 -4 -4 -4 -4 -4 -4 -4 -4 -4 -4 -4 -4 -5 -4 -4 -4 -6 -7 -7 -8 -7 -7 -7 -8 -9 -8 -8
-2 -3 -3 -4 -4 -4 -4 -4 -4 -3 -3 -3 -3 -4 -4 -4 -4 -5 -4 -4 -4 -4 -5 -6 -6 -6 -6 -6 -7 -8 -7 -6
-3 -3 -4 -3 -3 -3 -3 -2 -2 -2 -2 -2 -2 -2 -3 -3 -4 -4 -5 -4 -5 -4 -4 -4 -5 -5 -5 -5 -6 -6 -7 -6
-4 -4 -3 -3 -3 -3 -3 -2 -2 -2 -1 -1 -1 -1 -1 -2 -2 -3 -4 -4 -4 -4 -3 -3 -4 -4 -4 -5 -5 -5 -5 -6
-4 -3 -3 -3 -3 -3 -2 -2 -2 -1 -1 -1 -0 -0 -0 -0 -1 -2 -3 -4 -4 -4 -3 -3 -3 -3 -4 -4 -4 -4 -4 -5
-3 -3 -3 -2 -2 -1 -1 -1 -0 0 0 -0 -0 -1 -1 -2 -1 0 -1 -3 -3 -3 -2 -2 -3 -3 -3 -3 -3 -3 -3 -4
-3 -2 -2 -1 -1 -0 0 0 0 0 -0 -0 -2 -2 -2 -2 -2 -2 -1 -1 -2 -0 1 -2 -2 -2 -2 -2 -2 -3 -6 -6
-1 -1 -1 -1 -0 -0 -0 -0 -1 -1 -2 -2 -3 -2 -3 -3 -3 -3 -3 -2 -2 -0 1 -1 -1 -1 -1 -3 -4 -4 -5 -5
-0 -0 -0 -0 -0 -0 -2 -3 -4 -4 -5 -6 -6 -3 -3 -4 -5 -5 -3 -1 -0 0 -1 -2 -3 -3 -2 -1 -1 -1 -1 -2
0 -0 -1 -1 -3 -4 -5 -5 -4 -4 -7 -8 -4 -3 -4 -4 -4 -2 -1 -0 -1 -2 -2 -2 -1 -1 -1 -1 -1 -2 -3 -4

GFSFLT2_850_dewp_021.txt.gz
Dewpoint
2 2 -2 -3 -2 -2 -0 -1 2 3 3 3 3 4 3 3 3 4 4 4 4 4 5 5 5 5 6 7 8 8 9 8
4 3 -0 -3 -3 -3 -4 -3 3 4 3 2 1 1 2 2 3 3 3 1 -0 0 5 7 7 7 6 6 8 9 8 8
5 1 -1 -4 -5 -4 -3 -4 -3 -2 1 1 2 1 1 3 3 0 -2 -7 -7 -3 0 1 2 -1 -2 -1 3 7 8 7
6 3 -0 -4 -5 -5 -4 -4 -4 -2 -1 -1 2 2 1 1 1 -2 -5 -5 -6 -6 -3 -2 -4 -6 -4 -6 -6 -2 4 6
8 5 -0 -3 -4 -4 -5 -5 -3 -2 -0 0 0 1 2 2 3 1 -2 -5 -5 -6 -6 -6 -8 -6 -5 -7 -7 -7 -7 -7
8 6 -1 -3 -3 -3 -2 -2 -2 0 2 3 4 4 4 4 3 2 -1 -2 -3 -5 -6 -6 -6 -8 -8 -7 -7 -9 -8 -7
9 7 -1 -4 -3 -3 -3 -2 -0 1 2 2 1 2 2 2 2 2 -1 -3 -3 -4 -5 -4 -5 -6 -9 -11 -12 -13 -13 -12
8 7 -1 -3 -3 -3 -4 -3 -2 -2 -2 -2 -1 -0 -1 -2 -3 -4 -5 -5 -5 -5 -5 -6 -6 -6 -8 -11 -11 -11 -11 -11
8 7 -1 -3 -2 -3 -4 -4 -4 -4 -4 -4 -4 -4 -3 -3 -3 -4 -4 -5 -5 -5 -5 -5 -6 -8 -8 -10 -10 -9 -9 -8
8 6 -1 -2 -3 -4 -4 -4 -4 -4 -4 -4 -4 -4 -4 -4 -4 -4 -4 -5 -5 -4 -4 -5 -6 -7 -8 -8 -8 -8 -8 -8
5 4 -1 -2 -3 -4 -4 -4 -4 -4 -3 -3 -3 -3 -3 -3 -3 -4 -4 -4 -5 -4 -4 -4 -5 -6 -7 -7 -7 -7 -7 -8
4 1 -2 -3 -3 -4 -4 -4 -3 -2 -2 -2 -2 -2 -2 -2 -2 -2 -3 -3 -4 -4 -4 -4 -4 -5 -5 -6 -6 -6 -6 -7
1 -1 -3 -3 -3 -3 -3 -3 -3 -2 -2 -2 -2 -2 -1 -1 -1 -1 -2 -2 -3 -3 -4 -3 -3 -4 -4 -5 -5 -5 -5 -6
-1 -2 -2 -2 -2 -2 -2 -3 -3 -2 -2 -1 -0 -0 -0 -0 -0 -0 -0 -1 -2 -2 -2 -2 -2 -3 -3 -2 -2 -2 -4 -5
-2 -1 -1 -2 -2 -2 -2 -2 -1 -1 -1 0 0 -0 -0 -1 -1 -1 -1 -1 -1 -0 -1 -2 -1 -1 -2 -2 -1 -2 -2 -4
-2 -2 -2 -2 -1 -0 0 0 0 -0 -0 -1 -1 -2 -3 -3 -3 -2 -2 -2 -2 -1 0 -1 -1 1 -0 -2 -3 -3 -2 -2
-1 -1 -1 -0 0 0 -0 -0 -1 -3 -3 -4 -5 -7 -8 -8 -7 -4 -4 -4 -4 -3 -2 -1 -0 1 1 -0 -2 -2 -2 -3
0 -0 -0 -1 -1 -1 0 1 -1 -4 -6 -7 -9 -10 -11 -9 -7 -6 -6 -5 -5 -3 -1 0 1 1 0 -1 -1 -2 -2 -3
-0 -1 -1 -0 -0 0 -1 -4 -6 -6 -6 -6 -7 -7 -8 -6 -4 -4 -4 -4 -2 -1 -0 -1 -1 -1 -1 -1 -2 -1 -1 -2
0 -0 -0 -0 -2 -4 -7 -7 -5 -6 -7 -7 -6 -6 -6 -4 -3 -4 -3 -2 -1 -1 -1 -1 -1 -1 -1 -1 -1 -2 -2 -3

GFSFLT2_850_dewp_024.txt.gz
Dewpoint
5 0 -3 -4 -4 -4 -3 -2 0 2 3 2 2 2 2 3 3 4 4 4 4 4 5 6 6 7 7 7 7 7 10 10
9 5 1 -3 -1 -2 -4 -4 2 3 3 2 2 2 2 3 4 3 3 2 -2 -1 4 6 6 7 4 1 2 5 10 10
5 8 1 -1 -2 -2 -4 -5 -4 -3 -2 0 2 9 7 8 5 2 -1 -3 -5 -5 -5 -4 -3 -4 -5 -5 -3 6 8 9
6 2 1 -2 -3 -2 -2 -2 7 4 5 -0 8 2 3 3 1 1 -0 -2 -5 -5 -7 -6 -5 -0 1 -7 4 -2 3 6
10 5 0 -3 7 7 8 9 9 8 -0 2 3 1 8 8 9 8 8 1 3 -0 -4 -0 -5 -7 -1 -8 -6 -8 4 5
11 7 0 -3 1 6 7 7 9 9 10 3 9 10 10 10 9 9 9 8 5 5 5 -4 -4 -5 -6 -8 -9 -5 4 4
11 9 3 -3 -3 -1 -2 0 8 8 9 7 1 9 9 9 8 7 7 7 7 7 6 7 5 -0 -4 -6 -7 -4 -9 -1
11 9 5 -2 -2 -3 -5 -4 4 2 7 6 -4 -2 7 7 6 6 5 5 5 6 5 3 3 -0 -1 -7 -9 -1 -1 -8
9 8 8 -0 -2 -3 -3 2 -4 3 4 -4 -4 -4 -3 -3 5 4 4 5 2 1 2 1 -2 1 -4 -6 -8 -7 -4 -8
7 7 8 1 -2 -3 -3 1 -4 -0 -3 -2 -2 -3 -2 -2 3 4 4 3 4 5 5 4 4 2 -0 -1 -1 -1 -2 -6
6 6 8 2 -2 -2 -3 -4 -4 1 -3 -1 -2 -2 -1 -2 -1 1 3 4 5 5 4 5 3 2 -0 -1 -1 -1 -1 -2
5 8 8 2 -1 -3 -3 -3 -3 -3 -1 -2 -2 -2 -1 -1 -1 -0 3 4 4 4 5 4 4 2 -0 -2 -2 -1 -1 -1
6 7 6 2 2 2 3 2 1 0 0 -0 -1 -0 0 0 -0 -0 0 4 4 4 4 5 5 4 2 1 -0 -0 1 -0
2 2 1 1 0 -1 -2 -2 -1 -0 1 3 3 0 -0 -1 -1 -1 2 3 4 4 5 5 4 4 3 1 -0 -1 -0 1
-0 -0 -1 -1 -2 1 2 2 2 1 1 1 -1 -2 -5 -6 -7 -7 -6 -3 2 3 3 4 4 4 3 3 1 -0 -1 -1
-2 -1 -0 -0 -0 0 -1 1 1 2 2 2 0 -3 -5 -5 -4 -3 -4 -0 1 2 2 3 3 3 3 3 3 2 1 -0
0 2 0 -0 -1 1 3 3 2 2 2 1 -0 -1 -2 -2 -1 -11 -10 -4 -1 -0 2 3 3 3 3 3 3 3 2 2
2 2 2 -0 -1 -1 -1 -3 -2 -1 -1 -2 -3 -4 -4 -3 -2 -7 -6 -4 -3 -3 -0 1 1 2 2 2 2 1 1 1
2 2 2 1 0 -1 -1 -3 -2 -2 -2 -2 -2 -3 -3 -2 -3 -1 0 -0 -1 -1 -1 -1 -0 -0 -0 -0 0 -0 -0 -0
3 3 2 1 -0 -1 -7 -11 -4 -2 -1 -1 -2 -2 -2 -1 0 0 0 -0 0 -0 -1 -1 -1 -1 -1 -2 -2 -2 -3 -3

GFSFLT2_850_dewp_030.txt.gz
Dewpoint
-3 -4 -5 -5 -5 -6 -8 -8 -1 2 2 1 0 0 0 -1 -1 2 1 -0 -2 -8 -9 -9 -8 -6 -4 0 -3 -7 -4 9
9 7 7 8 8 -3 -7 -8 -6 -3 -1 -1 5 10 8 9 4 1 1 -1 -3 -4 -5 -6 -7 -7 -7 -7 -10 -10 5 7
8 9 10 9 8 6 6 3 9 7 9 6 10 10 10 9 6 7 7 6 5 0 0 -2 -4 -2 4 2 0 4 6 6
9 9 10 8 6 7 9 8 9 9 10 9 10 9 8 8 8 8 8 7 6 8 7 5 4 5 4 4 4 5 5 -0
9 10 9 10 6 7 8 8 8 10 10 8 10 8 9 9 8 8 8 7 7 7 7 7 7 5 1 4 5 1 -1 3
9 8 4 4 7 7 7 7 8 8 10 9 10 9 8 8 7 8 7 7 6 6 6 7 6 7 7 6 4 1 -1 2
7 9 10 5 2 6 5 5 8 9 8 9 8 3 8 5 5 6 6 5 5 5 5 4 5 5 5 4 4 3 3 -1
7 9 11 7 6 5 4 7 8 8 8 8 6 -2 2 1 3 4 5 5 4 2 4 5 5 5 5 4 3 3 0 -1
6 9 10 10 7 7 6 6 5 6 6 5 2 0 2 2 2 4 5 5 4 3 4 5 5 4 5 4 4 3 1 -0
6 8 10 10 8 7 6 5 5 4 5 4 5 5 4 3 2 3 4 5 4 5 5 5 5 5 4 4 4 3 2 0
6 7 9 10 10 7 6 5 3 5 4 4 4 5 4 4 3 3 4 4 5 5 5 5 5 5 5 5 4 4 3 1
7 7 9 10 9 7 6 4 4 4 3 2 2 3 3 3 1 1 1 3 3 3 4 4 4 4 3 4 5 4 3 3
7 8 8 9 7 6 5 3 3 3 2 2 3 3 3 2 2 2 2 2 2 2 2 1 2 3 5 5 5 4 5 5
4 5 5 3 3 3 2 2 2 2 2 3 3 3 3 3 3 2 2 1 0 -1 -0 2 2 3 4 4 5 4 4 3
3 3 3 2 1 3 3 2 2 2 3 2 3 4 3 2 1 -1 -1 -1 0 1 -3 -2 1 2 2 3 4 3 3 3
4 3 3 3 1 2 3 3 4 4 3 2 2 2 -1 -1 -2 -2 -2 -2 -1 -1 1 1 1 1 2 2 2 3 4 3
4 3 3 3 3 3 3 3 3 2 1 0 -0 -1 -1 -1 -1 -2 -2 -3 -2 1 2 2 2 3 3 2 1 -0 1 2
4 3 3 3 3 3 2 2 2 1 0 0 1 1 0 -1 -3 -4 -2 -0 0 1 1 -1 -1 -1 -0 -2 -2 -1 -1 -1
4 4 3 2 1 1 2 2 2 1 1 2 2 1 -1 -2 -2 -1 -0 0 -1 -1 -2 -2 -1 -1 -2 -3 -2 -1 -2 -2
2 3 3 1 1 1 2 2 2 2 1 1 1 -0 -1 -1 -1 -0 -1 -2 -2 -1 -1 -1 -3 -2 -3 -3 -3 -3 -3 -3

GFSFLT2_850_dewp_033.txt.gz
Dewpoint
-4 -4 -5 -5 -6 -9 -12 -9 -5 -1 -1 -2 -1 3 2 3 2 -1 -1 -2 -3 -5 -7 -7 -8 -9 -10 -10 -11 -12 -9 9
7 3 4 5 3 -4 -10 -8 -7 -5 -4 5 8 6 7 5 6 7 7 7 6 2 0 -0 -4 -6 -2 1 -3 -9 2 7
9 9 7 7 5 5 1 2 3 5 6 10 9 8 8 6 8 7 8 6 7 7 7 4 4 3 3 3 3 5 5 5
10 9 5 7 6 6 8 8 8 9 8 9 9 9 8 9 8 8 7 6 7 6 6 5 5 3 3 2 0 2 1 3
9 7 6 9 5 6 8 9 8 7 9 9 8 9 9 8 8 7 7 6 6 6 5 5 6 5 5 4 3 0 2 -0
9 5 5 8 8 7 7 8 8 9 9 9 7 8 8 7 5 6 4 5 5 5 5 5 4 5 4 5 5 4 2 -1
8 6 -4 0 5 5 7 8 8 7 9 8 7 -1 0 -0 1 1 2 5 5 4 4 3 2 2 3 4 4 3 2 2
6 7 8 1 6 5 -1 5 7 7 8 8 5 2 -2 -0 -0 0 2 5 5 4 3 4 4 4 4 4 4 5 4 3
6 7 9 8 3 4 4 7 6 7 6 6 4 0 -1 -1 -1 1 4 5 4 3 2 2 5 4 5 5 4 4 4 4
6 8 9 10 7 6 6 5 5 4 5 5 4 4 5 4 3 1 -0 0 -0 -0 0 2 4 5 5 5 5 5 5 4
8 9 9 10 9 7 6 6 5 3 5 5 5 5 5 4 3 0 1 2 2 3 3 4 5 5 5 5 4 2 2 4
8 9 9 10 8 8 7 5 5 5 4 4 4 3 3 2 2 2 2 2 2 3 2 2 3 2 1 1 3 4 5 5
6 7 8 8 7 6 5 5 4 3 2 2 3 3 3 3 3 3 3 2 1 -0 -1 -2 -3 -2 1 -1 2 2 2 1
4 5 6 5 3 3 3 3 2 2 2 4 4 4 4 4 3 2 1 -1 -2 -1 -2 -1 -4 -7 0 2 2 0 0 2
1 0 0 0 1 2 2 2 2 3 3 3 2 2 2 1 -0 -1 -1 -2 -2 -2 -2 -5 -5 0 2 2 3 2 2 1
3 3 2 2 2 2 2 2 2 3 2 1 1 1 0 -1 -1 -1 -1 -2 -5 -6 -3 0 2 2 2 1 1 -0 -0 -0
3 3 3 3 3 3 2 2 2 2 1 1 0 0 0 -0 0 -0 -4 -6 -2 -0 1 1 -1 -2 -3 -3 -3 -2 -4 -3
4 3 3 2 1 2 2 2 2 1 1 1 1 1 2 1 -1 -3 -3 -2 -1 0 -2 -2 -3 -2 -3 -3 -3 -4 -3 -2
3 3 3 3 1 1 1 2 2 2 2 1 1 1 0 -0 -4 -5 -4 -2 -4 -3 -3 -3 -3 -4 -5 -5 -3 -4 -3 -3
1 1 1 1 1 1 1 1 -0 -1 -1 -0 -1 -1 -1 -3 -2 -3 -4 -4 -3 -3 -3 -4 -5 -6 -6 -5 -2 -3 -3 -3

GFSFLT2_850_dewp_036.txt.gz
Dewpoint
-5 -6 -7 -7 -9 -13 -13 -9 -4 -2 -3 -6 -6 -2 1 -0 0 3 4 3 2 -1 -4 -3 -5 -7 -8 -6 -9 -12 -6 8
-4 -1 1 -0 -4 -10 -12 -11 -9 -8 -3 1 3 1 2 6 6 7 6 4 5 6 5 1 1 -0 -0 1 -1 -7 4 7
7 6 1 2 5 4 3 1 1 2 1 3 3 4 5 6 6 7 6 5 5 5 4 1 1 1 1 1 1 2 4 5
8 8 1 6 6 8 8 8 7 7 5 6 8 5 8 8 7 7 6 4 5 5 3 2 1 1 2 2 2 2 1 1
8 8 4 8 6 7 8 8 8 7 8 9 9 5 8 8 7 6 4 1 2 2 1 0 2 1 0 1 3 2 2 1
8 6 4 7 8 8 8 8 8 8 9 9 8 7 5 7 6 1 -0 0 1 2 3 3 2 2 1 1 0 1 2 2
8 5 -2 -1 5 7 7 7 8 8 8 9 9 7 3 5 1 0 1 2 3 4 4 3 2 2 2 2 3 2 2 3
8 6 3 3 -3 1 2 7 8 8 8 7 7 6 2 -1 0 1 2 3 4 3 3 3 2 1 2 4 4 4 4 4
7 6 7 5 2 1 2 4 6 6 6 7 6 5 1 -1 1 -0 0 2 1 1 2 2 3 3 4 4 5 5 5 5
7 8 8 8 4 6 7 5 6 6 5 5 5 4 4 4 4 4 2 1 1 1 2 2 3 4 4 4 5 5 6 5
8 9 8 8 8 6 7 6 6 5 5 5 5 5 5 5 4 3 3 1 2 2 2 3 3 2 2 2 1 0 -1 1
9 8 8 8 8 7 8 7 6 5 5 5 5 5 4 3 3 3 3 3 3 3 0 -1 -3 -4 -6 -8 -10 -11 -11 -7
9 10 10 9 9 9 7 4 2 2 3 4 3 3 4 4 4 3 3 3 1 -0 -1 -3 -4 -5 -8 -13 -14 -13 -6 -4
5 3 3 3 3 3 4 4 3 4 4 4 3 3 3 3 3 2 1 -0 -1 -1 -2 -3 -6 -9 -6 -1 -0 -2 -2 -1
1 2 2 2 2 2 2 2 2 2 2 2 2 1 0 0 -0 -1 -1 -1 -1 -2 -5 -10 -7 -1 1 0 -0 -0 -2 -3
0 1 2 2 2 1 -1 -2 -0 1 1 1 1 1 0 0 0 0 0 -2 -9 -7 -3 0 -0 -1 -2 -2 -3 -3 -2 -3
2 2 2 3 2 2 1 1 1 2 1 1 1 1 1 1 0 -1 -5 -8 -7 -4 -3 -2 -3 -3 -2 -2 -3 -4 -5 -4
3 3 3 2 2 2 0 0 -0 1 2 2 2 1 0 -0 -1 -3 -3 -4 -6 -6 -4 -2 -3 -3 -4 -5 -5 -4 -3 -3
3 2 2 1 1 0 0 1 1 1 -0 -1 -1 -2 -2 -2 -2 -2 -2 -4 -5 -5 -5 -4 -4 -6 -6 -6 -5 -3 -3 -4
2 1 1 1 1 1 1 0 -1 -3 -4 -6 -4 -2 -2 -2 -2 -2 -4 -4 -4 -5 -5 -5 -6 -6 -6 -6 -6 -6 -5 -5

GFSFLT2_850_dewp_042.txt.gz
Dewpoint
-5 -5 -7 -9 -12 -14 -13 -9 -5 -3 -5 -7 -2 -1 1 2 1 0 -0 1 1 -0 -3 -3 -2 -1 -1 -0 0 1 -0 2
-6 -7 -8 -10 -14 -14 -12 -8 -5 -7 -4 1 0 2 2 2 2 -0 -1 -0 1 -0 -1 -2 -2 -2 -2 -1 -1 -1 0 3
-4 -3 -5 -8 -12 -13 -12 -10 -7 -2 2 3 3 4 4 3 2 2 2 2 2 1 -0 -2 -1 -1 -1 -1 -2 -1 -0 0
3 3 -4 -0 -0 -2 -4 -1 2 2 5 6 5 3 4 4 3 3 3 3 2 2 2 1 1 1 1 1 0 -0 -1 -1
4 4 0 4 4 4 4 4 5 5 5 6 7 5 4 5 5 4 4 2 2 3 3 3 4 4 3 2 2 2 1 1
6 4 0 5 6 7 7 6 6 6 7 7 7 8 7 5 4 5 4 2 2 2 3 3 4 4 4 4 2 3 4 3
7 6 2 5 6 8 8 8 7 8 8 7 7 7 7 6 5 4 2 2 2 2 2 3 3 2 2 2 2 2 3 4
8 8 6 8 8 8 7 7 8 8 8 9 9 9 9 8 4 3 2 2 2 2 3 3 2 1 2 2 1 -0 1 3
8 9 7 8 8 8 7 6 6 8 9 8 8 9 9 7 5 4 5 4 3 4 3 2 2 2 3 3 1 -2 -4 -3
9 9 9 8 8 8 7 7 7 7 8 7 8 9 8 6 5 6 6 5 5 4 3 3 3 3 2 0 -2 -4 -5 -7
8 9 9 8 7 6 7 8 8 8 7 6 6 7 7 7 6 6 5 5 5 4 3 2 1 0 -1 -2 -3 -3 -5 -8
9 10 9 7 9 9 9 8 6 5 5 5 5 6 6 5 4 4 3 2 1 0 -0 -0 -1 -2 -3 -4 -6 -12 -17 -14
10 10 9 9 9 8 5 6 5 2 0 -0 1 3 3 3 2 1 0 0 0 0 0 -2 -6 -11 -16 -15 -17 -10 -3 -6
8 4 5 5 5 5 3 2 -1 -3 -3 -3 -2 -2 -2 -1 1 1 1 1 1 -2 -5 -9 -12 -15 -14 -13 -7 -9 -8 -5
-0 -0 1 1 -0 -1 -3 -3 -3 -1 -1 -1 -1 -1 0 1 2 2 1 -2 -4 -6 -7 -9 -10 -13 -10 -5 -3 -3 -4 -6
0 -1 -1 -3 -3 -2 -2 -1 -0 0 0 0 1 1 1 1 -1 -3 -4 -5 -5 -7 -11 -11 -11 -10 -8 -6 -4 -2 -2 -2
2 2 1 0 0 1 0 0 0 1 1 1 1 -1 -2 -4 -5 -5 -5 -5 -9 -12 -9 -7 -6 -6 -5 -5 -5 -6 -5 -3
3 3 3 2 2 1 1 1 0 0 -0 -2 -5 -7 -8 -8 -6 -6 -6 -8 -14 -9 -7 -6 -5 -5 -6 -6 -6 -5 -5 -5
3 3 3 2 1 1 0 -0 -1 -3 -5 -7 -12 -11 -11 -9 -8 -7 -6 -6 -14 -10 -8 -7 -6 -4 -4 -5 -5 -5 -4 -4
3 2 2 1 1 -0 -1 -3 -5 -7 -8 -8 -10 -9 -8 -8 -7 -6 -6 -6 -11 -6 -5 -5 -5 -5 -5 -5 -5 -6 -6 -6

GFSFLT2_850_dewp_045.txt.gz
Dewpoint
6 -0 -3 -5 -8 -9 -11 -8 -5 -2 -6 -6 -2 0 2 1 0 1 1 0 -1 -3 -2 -2 -2 -3 -3 -3 -3 -3 -2 1
-4 -6 -7 -10 -11 -11 -7 -5 -3 -6 -2 0 1 2 2 1 1 0 1 1 0 -1 -1 -2 -2 -2 -1 -2 -3 -3 -2 -2
-6 -7 -8 -10 -12 -11 -8 -6 -7 -1 1 3 3 3 2 1 2 2 2 1 2 1 -1 -1 -0 -0 -0 -0 -1 -1 -1 -2
-4 -2 -4 -9 -11 -10 -8 -6 -2 3 4 4 3 3 4 4 3 3 3 2 2 1 1 1 1 1 1 1 0 0 0 0
2 1 1 2 3 -0 1 4 4 5 6 6 6 6 6 4 5 6 5 3 2 2 2 2 3 3 3 3 2 2 1 1
5 3 5 6 7 7 7 7 7 7 8 8 8 8 8 7 6 6 6 3 2 2 3 3 3 3 3 2 1 1 1 1
7 4 5 7 8 8 9 8 8 9 9 9 10 10 9 8 7 6 5 3 2 2 2 3 3 3 1 1 2 2 2 0
8 7 6 8 8 8 8 9 9 8 8 8 8 8 9 9 7 5 4 3 4 3 3 4 3 2 1 2 2 3 1 -1
8 9 7 9 9 9 8 8 7 6 7 7 7 7 8 9 7 5 5 5 5 5 4 4 4 3 3 3 3 2 -0 -1
8 9 10 10 8 7 6 6 5 6 7 7 7 7 7 8 7 7 6 6 6 5 5 4 3 2 1 1 -0 -1 -2 -3
7 9 10 10 8 7 7 6 7 8 7 6 6 6 6 6 6 5 4 3 3 1 1 0 -0 -0 -1 -2 -4 -6 -9 -12
7 9 11 9 8 7 6 9 6 5 2 1 1 1 2 2 2 2 1 1 1 1 1 -0 -3 -7 -11 -14 -17 -20 -21 -20
9 9 8 8 9 8 6 5 1 -3 -3 -3 -2 -2 -2 -2 -2 -0 1 1 1 -0 -4 -8 -10 -11 -12 -5 -12 -13 -7 -3
9 7 9 8 5 4 4 1 -3 -2 -1 -0 -0 -0 -1 -1 -0 1 1 -1 -4 -7 -9 -10 -12 -14 -12 -4 -6 -5 -3 -4
-0 -0 -1 0 2 1 -1 -2 -1 0 0 0 0 -0 0 0 -1 -3 -4 -7 -8 -10 -11 -13 -13 -12 -12 -4 -4 -6 -3 -4
-2 -2 -1 -1 -1 -1 -0 -0 -0 0 1 1 0 1 -1 -3 -6 -8 -9 -10 -11 -11 -12 -14 -12 -4 -6 -4 -4 -2 -2 -4
1 1 0 0 0 1 1 1 1 1 1 0 -2 -4 -7 -11 -12 -12 -12 -12 -9 -8 -13 -13 -10 -7 -3 -4 -6 -3 -3 -3
2 3 2 2 2 1 1 1 -0 -2 -3 -5 -7 -10 -12 -10 -8 -8 -8 -7 -6 -7 -10 -9 -7 -6 -5 -4 -3 -3 -4 -3
3 3 3 2 1 1 0 -1 -3 -4 -6 -7 -8 -10 -9 -7 -7 -6 -5 -5 -5 -7 -8 -6 -5 -5 -5 -4 -5 -6 -6 -6
3 3 2 1 1 -0 -2 -3 -4 -5 -6 -6 -6 -6 -6 -6 -6 -5 -4 -5 -6 -7 -8 -6 -6 -6 -6 -8 -8 -9 -9 -9

GFSFLT2_850_dewp_048.txt.gz
Dewpoint
12 11 7 3 -1 -0 -2 -4 -2 -1 -4 -7 -4 -0 2 1 1 1 1 -1 -2 -1 -2 -3 -4 -4 -4 -3 -3 -4 4 3
12 11 5 -2 -4 -5 -6 -2 -0 -5 -5 -1 1 3 3 2 2 2 1 2 0 -0 -1 -2 -2 -1 -1 -1 -1 3 5 4
5 9 -0 -4 4 -5 -2 -0 -2 -1 1 3 4 8 7 6 3 2 1 2 2 0 -1 -1 -0 1 0 -0 1 5 5 4
-3 -5 -7 -7 2 -4 -2 -2 3 5 5 4 9 6 9 9 5 5 4 2 1 1 1 1 3 6 5 4 5 4 5 5
-3 -3 -6 -7 -3 -0 5 4 3 5 7 8 7 7 9 10 9 10 9 6 7 6 5 6 3 4 6 4 4 4 4 4
1 1 -1 1 2 5 6 9 7 8 8 8 9 9 8 7 10 10 8 8 4 3 7 2 2 3 3 2 2 3 3 3
5 3 5 7 7 8 8 9 9 9 9 9 9 9 9 9 9 8 6 7 7 6 6 6 5 4 4 3 3 3 3 2
7 5 6 7 8 8 9 9 9 9 9 9 9 8 7 7 8 8 7 6 5 5 5 5 5 4 4 4 3 3 3 3
8 8 7 8 8 9 9 9 7 6 6 7 8 7 7 7 7 8 7 6 6 5 5 4 4 4 3 3 3 2 2 2
10 8 8 9 9 7 6 6 5 5 7 7 7 7 6 7 7 7 6 6 5 4 3 3 2 2 2 2 1 0 -0 -1
9 8 9 10 8 8 7 6 7 7 5 5 4 3 2 2 2 2 2 2 2 2 2 2 1 0 -1 -4 -5 -4 -6 -6
8 8 9 10 9 7 4 7 8 4 -0 -3 -3 -2 -2 -2 -2 -2 0 2 2 0 -0 -1 -1 -3 -3 -6 -4 -5 -5 -3
7 8 9 7 6 6 7 6 3 -3 -2 -1 -1 -0 -0 -1 0 0 0 2 -2 -2 -3 -4 -4 -3 -2 -6 -6 -5 0 -1
10 9 8 8 7 7 5 4 1 1 -0 0 0 0 -0 -0 0 1 -2 -1 -1 -2 -3 -4 -5 -5 -2 -3 -8 -8 -8 -2
9 8 7 5 4 2 2 -1 -2 0 1 2 1 0 0 1 -2 -5 -5 -5 -4 -3 -3 -3 -4 -5 -4 -3 -4 -6 -5 -6
6 6 5 -2 -1 4 3 2 2 3 3 2 2 0 -2 -4 -8 -11 -6 -4 -3 -4 -5 -3 -3 -5 -6 -5 -4 -4 -3 -5
4 4 4 1 0 3 3 3 2 3 3 0 0 -0 -6 -11 -10 -6 -2 -2 -3 -2 -2 -2 -3 -4 -5 -5 -5 -5 -6 -5
1 3 1 1 2 2 2 2 1 -0 -1 -2 -3 -3 -3 -3 -3 -2 -1 -2 -1 -2 -2 -2 -3 -3 -4 -3 -3 -2 -3 -3
4 4 4 2 2 1 0 -1 -1 -2 -2 -3 -4 -5 -5 -4 -3 -2 -3 -3 -1 -1 -2 -3 -3 -3 -3 -4 -3 -4 -4 -5
4 4 3 2 1 -0 -1 -2 -2 -2 -3 -3 -4 -4 -3 -3 -2 -2 -1 -2 -2 -2 -2 -3 -3 -3 -3 -3 -4 -5 -5 -5

GFSFLT2_850_dewp_054.txt.gz
Dewpoint
12 12 12 11 11 9 6 2 -1 -1 -3 -6 -4 0 1 0 -0 -1 -1 -2 -2 -3 -4 -4 -3 -2 -1 -1 1 4 4 4
12 11 11 10 7 5 2 -2 -1 -1 -6 0 3 2 2 1 2 1 1 0 -0 -1 -2 -3 -2 1 5 4 4 5 3 4
10 9 7 4 2 -1 -2 -1 -0 -5 1 5 9 9 9 9 5 2 2 1 0 0 0 -0 3 7 7 6 5 6 3 5
12 11 11 9 2 -1 -0 -0 -0 4 4 10 10 11 11 7 8 8 9 7 7 7 6 6 7 7 7 7 6 5 4 4
11 10 9 8 7 8 3 8 10 11 8 11 10 8 10 10 10 10 8 9 9 7 7 8 7 6 6 5 5 5 5 4
7 4 7 7 5 7 7 8 10 10 9 8 9 9 9 8 9 9 10 9 8 8 8 8 7 7 7 6 6 5 5 5
1 -3 3 4 8 7 9 9 10 11 10 10 9 9 9 9 7 7 8 7 8 8 8 7 7 6 6 5 5 5 4 4
7 3 6 10 9 10 10 10 10 9 8 8 7 8 8 9 9 8 9 8 7 7 6 6 5 5 4 4 4 3 3 2
9 10 11 11 10 10 10 10 9 7 5 5 6 6 7 7 7 7 6 4 4 3 3 2 3 3 3 2 1 0 0 -0
10 10 11 10 10 9 8 8 7 5 4 4 6 5 4 2 -1 -2 -2 -0 3 3 2 0 -1 -1 -1 -3 -3 -3 -3 -5
10 10 10 10 8 7 7 5 3 4 4 3 5 -2 -2 1 1 1 0 3 3 3 1 -2 -3 -4 -4 -4 -4 -5 -3 -4
11 10 8 10 9 8 8 8 8 6 5 4 -3 -1 1 2 4 3 3 3 2 1 -0 -3 -4 -4 -5 -5 -5 -5 -6 -5
11 10 9 9 9 9 9 7 7 5 5 3 -0 3 3 2 2 2 2 1 0 -1 -1 -3 -4 -4 -5 -6 -5 -7 -5 -8
9 10 10 9 9 9 9 8 5 3 3 1 3 2 2 3 2 0 -1 -4 -6 -3 -3 -4 -4 -3 -4 -4 -4 -5 -6 -6
10 10 9 9 9 8 7 4 4 4 3 4 4 3 3 3 1 -1 -6 -7 -4 -2 -2 -2 -2 -4 -3 -4 -4 -4 -4 -5
10 9 9 8 6 5 5 4 3 3 4 5 4 4 3 1 -1 -4 -3 -1 -1 -2 -2 -3 -3 -2 -3 -3 -4 -4 -3 -3
9 7 7 6 5 4 4 3 4 4 4 4 3 1 0 -1 -1 -1 -1 -1 -1 -2 -2 -1 -1 -2 -3 -4 -4 -4 -4 -3
7 6 6 6 5 5 4 4 4 4 3 1 0 -1 -2 -4 -4 -3 -2 -2 -3 -3 -3 -2 -2 -3 -2 -2 -2 -3 -3 -3
6 5 5 5 5 6 5 5 4 2 0 0 -1 -2 -4 -4 -3 -3 -2 -3 -3 -3 -3 -2 -2 -5 -2 -2 -3 -3 -2 -3
5 5 5 5 6 5 3 2 0 0 -0 -1 -1 -2 -2 -2 -2 -3 -3 -3 -3 -4 -4 -4 -3 -3 -2 -2 -2 -2 -4 -4

GFSFLT2_850_dewp_060.txt.gz
Dewpoint
11 11 10 8 10 9 1 -3 -5 -6 -9 -6 -3 -3 -3 -3 -2 -2 -2 -3 -3 -3 -3 -2 4 5 4 4 5 5 4 5
9 9 8 11 9 3 -2 -7 -4 -9 -5 -2 -2 -2 -1 -1 -1 -0 0 -0 0 -0 -1 0 3 5 4 4 5 5 5 4
9 9 10 10 3 -2 -8 -8 -7 -4 -0 1 4 6 5 6 8 7 7 6 6 6 6 6 6 6 6 6 6 6 6 4
9 9 9 4 -1 -7 -8 -4 -1 2 4 6 9 8 8 9 9 10 9 9 7 7 7 7 6 6 7 6 5 5 5 4
8 7 7 1 -6 -10 -5 -4 8 10 10 10 9 8 8 10 10 10 9 8 8 8 7 7 7 7 7 6 5 5 5 5
8 7 3 -3 -8 -7 -3 1 7 11 11 10 9 9 11 10 10 9 9 8 8 8 8 8 8 7 7 6 6 5 4 4
10 9 6 -1 -3 -2 2 8 8 9 10 10 11 10 10 9 8 8 8 8 8 8 8 8 7 5 4 3 3 4 3 2
10 8 6 3 3 6 7 9 8 8 9 8 8 9 8 8 8 7 8 8 7 6 1 -3 -4 -5 -4 -4 -4 -4 -4 -4
9 7 6 6 6 7 8 9 10 10 10 9 6 5 5 6 7 7 6 4 -3 -3 -5 -6 -7 -9 -11 -13 -14 -10 -10 -11
6 6 6 6 7 8 8 9 9 9 8 5 4 3 4 6 4 -1 -2 -3 -4 -4 -5 -6 -9 -11 -13 -14 -13 -12 -10 -9
2 3 7 8 8 8 9 9 9 7 5 4 4 1 -2 -2 -1 -2 -2 -2 -1 -2 -5 -8 -9 -9 -9 -9 -9 -11 -11 -7
-0 3 6 9 9 9 9 9 8 6 6 4 2 0 -1 -1 -0 -1 -0 -0 -0 -4 -9 -10 -9 -9 -9 -8 -8 -8 -9 -10
2 5 8 9 9 8 9 7 7 8 6 3 1 1 0 0 1 1 1 -0 -4 -8 -8 -10 -11 -9 -8 -5 -6 -6 -7 -6
8 8 9 9 10 7 7 8 8 8 6 4 3 2 1 2 2 1 -1 -4 -6 -6 -8 -10 -11 -6 -4 -3 -3 -5 -5 -6
9 9 10 10 10 9 8 7 6 5 4 3 1 2 3 3 2 -0 -1 -3 -6 -6 -6 -5 -4 -3 -2 -2 -2 -3 -3 -4
10 10 11 10 9 8 5 2 2 3 2 3 3 4 4 2 1 0 -1 -2 -5 -4 -3 -3 -3 -3 -3 -3 -3 -2 -3 -2
11 11 10 9 8 7 7 3 3 2 4 4 4 4 3 1 -1 -2 -2 -3 -3 -2 -2 -2 -3 -5 -4 -3 -2 -3 -3 -4
11 8 8 9 9 7 6 4 3 4 4 4 4 2 2 -1 -1 -3 -3 -3 -3 -2 -2 -4 -7 -5 -4 -4 -4 -3 -3 -3
7 8 9 9 6 7 6 5 4 4 4 5 4 2 -1 -2 -0 0 -3 -3 -3 -4 -7 -10 -11 -8 -7 -6 -3 -2 -2 -3
8 9 10 6 5 6 5 5 4 4 3 1 -0 -0 0 3 1 -2 -3 -3 -8 -14 -17 -17 -13 -9 -8 -4 -3 -3 -4 -4

GFSFLT2_850_dewp_066.txt.gz
Dewpoint
13 11 10 10 6 4 0 -5 -9 -7 -5 -4 -3 -3 -3 -3 -4 -4 -3 -3 -2 2 2 2 4 4 5 5 5 5 5 5
12 11 11 8 8 3 -2 -7 -9 -5 -4 -2 -2 -2 -1 -1 -2 -2 -3 -3 -2 -0 3 5 5 5 5 5 5 5 4 4
11 11 9 6 6 1 -4 -7 -6 -2 -1 -1 -0 0 1 1 0 1 1 1 2 2 4 5 6 6 6 6 6 5 5 5
11 10 7 6 7 2 -5 -6 -3 -0 0 1 2 4 5 6 6 5 5 5 5 5 6 6 6 6 6 7 6 6 6 5
8 8 9 9 4 -3 -5 -5 1 2 5 6 6 8 8 9 8 8 7 7 7 7 6 7 7 7 7 7 7 6 5 4
6 5 4 7 3 -1 -3 -1 2 7 7 8 7 8 9 9 9 8 8 8 8 8 8 8 8 7 6 6 3 1 -2 -1
6 4 4 5 2 -1 -1 3 7 8 9 9 8 7 9 9 8 9 8 8 8 8 8 8 7 3 -3 -7 -10 -13 -15 -15
6 8 9 10 1 0 1 4 9 9 9 9 9 9 8 9 8 8 8 8 8 8 5 -2 -5 -8 -11 -14 -17 -19 -19 -20
7 8 9 8 1 -1 5 10 9 9 9 9 9 9 9 8 8 8 8 8 5 -2 -4 -5 -8 -12 -15 -17 -19 -20 -19 -17
9 8 7 2 1 3 5 6 7 9 8 9 9 8 7 7 6 7 6 -1 -2 -2 -2 -6 -11 -13 -18 -20 -20 -18 -13 -13
10 11 8 2 4 8 8 8 8 8 10 9 7 5 4 5 6 4 -1 -1 -1 -2 -5 -7 -9 -14 -15 -14 -15 -14 -11 -11
9 10 9 6 7 8 8 9 9 10 10 7 5 4 4 4 0 -1 -0 0 -0 -1 -3 -6 -9 -10 -9 -6 -9 -10 -10 -7
10 10 9 7 7 8 8 8 10 10 7 5 5 4 1 -0 0 1 2 1 -0 -2 -3 -5 -7 -6 -5 -4 -6 -7 -7 -6
9 9 8 7 6 7 8 9 10 9 7 6 4 1 0 1 1 3 1 -1 -1 -2 -2 -3 -4 -4 -3 -4 -5 -8 -7 -7
7 7 5 5 5 7 9 10 9 7 7 6 4 3 2 1 3 2 -1 -1 -1 -1 -1 -2 -3 -3 -3 -5 -5 -8 -6 -6
7 8 5 5 5 8 9 10 9 8 7 7 5 3 3 3 3 0 -0 -1 0 1 -0 -2 -2 -3 -6 -10 -9 -7 -3 -3
7 7 5 5 6 9 10 10 9 8 8 6 4 3 3 4 3 1 0 -1 3 3 -2 -2 -5 -10 -14 -14 -12 -10 -7 -4
8 8 7 4 7 9 10 10 9 6 6 5 4 3 4 4 3 3 1 1 3 1 -3 -5 -13 -16 -17 -14 -11 -9 -6 -3
7 7 8 8 9 10 10 10 8 5 3 3 3 3 4 4 3 1 1 4 -1 -3 -7 -12 -15 -17 -17 -13 -10 -9 -8 -9
6 6 7 9 10 10 10 10 8 6 4 3 3 4 4 4 3 2 3 -3 -5 -9 -11 -12 -14 -16 -12 -11 -10 -8 -7 -11